Wetterstation Vettwei-Soller: Standort 50 43' 54" Nord - 6 33' 24" Ost
Wetterdaten: aktuell Donnerstag, 09.07.2020 06:15
Datum Zeit Temp. A. Temp. A. min Temp. A. max Feuchte A. Luftdruck Regen Wind Richtung Richtung Sonnenschein Zeit Regen ET UV Solar Taupunkt Windchill Windben
09.07.2020 06:15 16,7 C 16,6 C 16,7 C 91 % 1015,7 hPa 0,0 l/m 5,2 km/h (1 Bft) W-SW 248 0 min 0 min 0,000 mm 0,0 UV-I 5 W/m 15,2 C 16,7 C 16,1 km/h (3 Bft)
09.07.2020 06:00 16,6 C 16,4 C 16,6 C 92 % 1015,7 hPa 0,0 l/m 5,2 km/h (1 Bft) W-SW 242 0 min 0 min 0,000 mm 0,0 UV-I 0 W/m 15,3 C 16,6 C 17,7 km/h (3 Bft)
09.07.2020 05:45 16,4 C 16,3 C 16,5 C 93 % 1015,7 hPa 0,0 l/m 2,3 km/h (1 Bft) W-SW 237 0 min 0 min 0,000 mm 0,0 UV-I 0 W/m 15,3 C 16,4 C 9,7 km/h (2 Bft)
09.07.2020 05:30 16,4 C 16,2 C 16,4 C 94 % 1015,6 hPa 0,0 l/m 3,7 km/h (1 Bft) W-SW 255 0 min 0 min 0,000 mm 0,0 UV-I 0 W/m 15,4 C 16,4 C 9,7 km/h (2 Bft)
09.07.2020 05:15 16,2 C 16,2 C 16,3 C 94 % 1015,7 hPa 0,0 l/m 1,8 km/h (1 Bft) W-SW 248 0 min 0 min 0,000 mm 0,0 UV-I 0 W/m 15,2 C 16,2 C 4,8 km/h (1 Bft)
09.07.2020 05:00 16,3 C 16,1 C 16,3 C 95 % 1015,6 hPa 0,0 l/m 1,3 km/h (1 Bft) W-SW 248 0 min 0 min 0,000 mm 0,0 UV-I 0 W/m 15,5 C 16,3 C 6,4 km/h (2 Bft)
09.07.2020 04:45 16,2 C 16,1 C 16,2 C 95 % 1015,6 hPa 0,0 l/m 2,0 km/h (1 Bft) SW 220 0 min 0 min 0,000 mm 0,0 UV-I 0 W/m 15,4 C 16,2 C 8,0 km/h (2 Bft)
09.07.2020 04:30 16,2 C 16,1 C 16,2 C 95 % 1015,7 hPa 0,0 l/m 0,4 km/h (0 Bft) W-SW 244 0 min 0 min 0,000 mm 0,0 UV-I 0 W/m 15,4 C 16,2 C 3,2 km/h (1 Bft)
09.07.2020 04:15 16,2 C 16,2 C 16,2 C 95 % 1015,9 hPa 0,0 l/m 0,4 km/h (0 Bft) W-SW 244 0 min 0 min 0,000 mm 0,0 UV-I 0 W/m 15,4 C 16,2 C 3,2 km/h (1 Bft)
09.07.2020 04:00 16,2 C 16,2 C 16,2 C 95 % 1015,9 hPa 0,0 l/m 0,3 km/h (0 Bft) W-SW 244 0 min 0 min 0,000 mm 0,0 UV-I 0 W/m 15,4 C 16,2 C 3,2 km/h (1 Bft)
09.07.2020 03:45 16,2 C 16,1 C 16,2 C 95 % 1015,8 hPa 0,0 l/m 0,0 km/h (0 Bft) W-SW 244 0 min 0 min 0,000 mm 0,0 UV-I 0 W/m 15,4 C 16,2 C 0,0 km/h (0 Bft)
09.07.2020 03:30 16,2 C 16,1 C 16,2 C 95 % 1015,9 hPa 0,0 l/m 0,0 km/h (0 Bft) W-SW 244 0 min 0 min 0,000 mm 0,0 UV-I 0 W/m 15,4 C 16,2 C 1,6 km/h (1 Bft)
09.07.2020 03:15 16,1 C 16,1 C 16,2 C 95 % 1016,0 hPa 0,0 l/m 1,0 km/h (0 Bft) W-SW 244 0 min 0 min 0,000 mm 0,0 UV-I 0 W/m 15,3 C 16,1 C 4,8 km/h (1 Bft)
09.07.2020 03:00 16,2 C 16,2 C 16,2 C 95 % 1015,9 hPa 0,0 l/m 0,9 km/h (0 Bft) W-SW 244 0 min 0 min 0,000 mm 0,0 UV-I 0 W/m 15,4 C 16,2 C 3,2 km/h (1 Bft)
09.07.2020 02:45 16,2 C 16,2 C 16,2 C 95 % 1016,1 hPa 0,0 l/m 0,2 km/h (0 Bft) W 262 0 min 0 min 0,000 mm 0,0 UV-I 0 W/m 15,4 C 16,2 C 3,2 km/h (1 Bft)
09.07.2020 02:30 16,2 C 16,2 C 16,2 C 95 % 1016,2 hPa 0,0 l/m 0,7 km/h (0 Bft) W 262 0 min 0 min 0,000 mm 0,0 UV-I 0 W/m 15,4 C 16,2 C 3,2 km/h (1 Bft)
09.07.2020 02:15 16,2 C 16,2 C 16,2 C 95 % 1016,2 hPa 0,0 l/m 0,5 km/h (0 Bft) NW 305 0 min 0 min 0,000 mm 0,0 UV-I 0 W/m 15,4 C 16,2 C 1,6 km/h (1 Bft)
09.07.2020 02:00 16,2 C 16,1 C 16,2 C 95 % 1016,4 hPa 0,2 l/m 0,5 km/h (0 Bft) NW 305 0 min 15 min 0,000 mm 0,0 UV-I 0 W/m 15,4 C 16,2 C 1,6 km/h (1 Bft)
09.07.2020 01:45 16,1 C 16,1 C 16,2 C 95 % 1016,5 hPa 0,0 l/m 0,3 km/h (0 Bft) NW 305 0 min 0 min 0,000 mm 0,0 UV-I 0 W/m 15,3 C 16,1 C 3,2 km/h (1 Bft)
09.07.2020 01:30 16,1 C 16,1 C 16,2 C 95 % 1016,6 hPa 0,0 l/m 0,2 km/h (0 Bft) NW 305 0 min 0 min 0,000 mm 0,0 UV-I 0 W/m 15,3 C 16,1 C 3,2 km/h (1 Bft)
09.07.2020 01:15 16,1 C 16,0 C 16,1 C 95 % 1016,7 hPa 0,0 l/m 0,1 km/h (0 Bft) NW 305 0 min 0 min 0,000 mm 0,0 UV-I 0 W/m 15,3 C 16,1 C 1,6 km/h (1 Bft)
09.07.2020 01:00 16,1 C 16,0 C 16,1 C 95 % 1016,8 hPa 0,0 l/m 0,4 km/h (0 Bft) NW 305 0 min 0 min 0,000 mm 0,0 UV-I 0 W/m 15,3 C 16,1 C 3,2 km/h (1 Bft)
09.07.2020 00:45 16,0 C 15,9 C 16,0 C 95 % 1016,9 hPa 0,0 l/m 0,5 km/h (0 Bft) NW 305 0 min 0 min 0,000 mm 0,0 UV-I 0 W/m 15,2 C 16,0 C 1,6 km/h (1 Bft)
09.07.2020 00:30 16,0 C 15,8 C 16,0 C 94 % 1017,1 hPa 0,2 l/m 0,2 km/h (0 Bft) NW 305 0 min 15 min 0,000 mm 0,0 UV-I 0 W/m 15,0 C 16,0 C 1,6 km/h (1 Bft)
09.07.2020 00:15 15,8 C 15,8 C 15,9 C 94 % 1017,2 hPa 0,0 l/m 0,1 km/h (0 Bft) NW 305 0 min 0 min 0,000 mm 0,0 UV-I 0 W/m 14,8 C 15,8 C 1,6 km/h (1 Bft)
09.07.2020 00:00 15,9 C 15,9 C 16,1 C 94 % 1017,2 hPa 0,0 l/m 0,4 km/h (0 Bft) NW 305 0 min 0 min 0,000 mm 0,0 UV-I 0 W/m 14,9 C 15,9 C 3,2 km/h (1 Bft)
08.07.2020 23:45 16,1 C 15,9 C 16,1 C 94 % 1017,4 hPa 0,0 l/m 0,2 km/h (0 Bft) NW 305 0 min 0 min 0,000 mm 0,0 UV-I 0 W/m 15,1 C 16,1 C 1,6 km/h (1 Bft)
08.07.2020 23:30 16,0 C 15,8 C 16,0 C 94 % 1017,3 hPa 0,0 l/m 0,1 km/h (0 Bft) NW 305 0 min 0 min 0,000 mm 0,0 UV-I 0 W/m 15,0 C 16,0 C 1,6 km/h (1 Bft)
08.07.2020 23:15 15,8 C 15,8 C 15,9 C 94 % 1017,1 hPa 0,0 l/m 0,6 km/h (0 Bft) NW 305 0 min 0 min 0,000 mm 0,0 UV-I 0 W/m 14,8 C 15,8 C 3,2 km/h (1 Bft)
08.07.2020 23:00 15,8 C 15,8 C 15,9 C 94 % 1017,2 hPa 0,0 l/m 1,1 km/h (1 Bft) NW 305 0 min 0 min 0,000 mm 0,0 UV-I 0 W/m 14,8 C 15,8 C 3,2 km/h (1 Bft)
08.07.2020 22:45 15,8 C 15,8 C 16,1 C 94 % 1017,2 hPa 0,0 l/m 2,1 km/h (1 Bft) NW 305 0 min 0 min 0,000 mm 0,0 UV-I 0 W/m 14,8 C 15,8 C 11,3 km/h (2 Bft)
08.07.2020 22:30 16,1 C 16,0 C 16,2 C 94 % 1017,4 hPa 0,2 l/m 3,3 km/h (1 Bft) W-NW 302 0 min 15 min 0,000 mm 0,0 UV-I 0 W/m 15,1 C 16,1 C 8,0 km/h (2 Bft)
08.07.2020 22:15 16,2 C 16,1 C 16,2 C 94 % 1017,3 hPa 0,0 l/m 3,0 km/h (1 Bft) N-NW 327 0 min 0 min 0,000 mm 0,0 UV-I 0 W/m 15,2 C 16,2 C 6,4 km/h (2 Bft)
08.07.2020 22:00 16,1 C 16,1 C 16,2 C 94 % 1017,2 hPa 0,0 l/m 1,8 km/h (1 Bft) S 190 0 min 0 min 0,000 mm 0,0 UV-I 0 W/m 15,1 C 16,1 C 4,8 km/h (1 Bft)
08.07.2020 21:45 16,2 C 16,1 C 16,2 C 94 % 1017,0 hPa 0,0 l/m 0,3 km/h (0 Bft) S 190 0 min 0 min 0,000 mm 0,0 UV-I 0 W/m 15,2 C 16,2 C 1,6 km/h (1 Bft)
08.07.2020 21:30 16,1 C 16,1 C 16,2 C 94 % 1016,9 hPa 0,2 l/m 1,1 km/h (1 Bft) S 190 0 min 15 min 0,000 mm 0,0 UV-I 0 W/m 15,1 C 16,1 C 3,2 km/h (1 Bft)
08.07.2020 21:15 16,2 C 16,1 C 16,2 C 94 % 1017,1 hPa 0,2 l/m 1,0 km/h (0 Bft) W-SW 247 0 min 15 min 0,000 mm 0,0 UV-I 0 W/m 15,2 C 16,2 C 3,2 km/h (1 Bft)
08.07.2020 21:00 16,1 C 16,1 C 16,1 C 93 % 1017,2 hPa 0,4 l/m 0,4 km/h (0 Bft) W-SW 247 0 min 15 min 0,000 mm 0,0 UV-I 5 W/m 15,0 C 16,1 C 3,2 km/h (1 Bft)
08.07.2020 20:45 16,1 C 16,0 C 16,1 C 93 % 1017,1 hPa 0,4 l/m 1,1 km/h (1 Bft) W-SW 247 0 min 15 min 0,000 mm 0,0 UV-I 12 W/m 15,0 C 16,1 C 3,2 km/h (1 Bft)
08.07.2020 20:30 16,1 C 16,0 C 16,1 C 93 % 1017,1 hPa 0,2 l/m 0,9 km/h (0 Bft) W-SW 248 0 min 15 min 0,000 mm 0,0 UV-I 16 W/m 15,0 C 16,1 C 3,2 km/h (1 Bft)
08.07.2020 20:15 16,1 C 16,0 C 16,1 C 92 % 1017,1 hPa 0,2 l/m 0,4 km/h (0 Bft) W-SW 248 0 min 15 min 0,000 mm 0,0 UV-I 30 W/m 14,8 C 16,1 C 1,6 km/h (1 Bft)
08.07.2020 20:00 16,1 C 16,1 C 16,3 C 92 % 1016,9 hPa 0,2 l/m 1,1 km/h (1 Bft) W-SW 248 0 min 15 min 0,025 mm 0,0 UV-I 33 W/m 14,8 C 16,1 C 3,2 km/h (1 Bft)
08.07.2020 19:45 16,3 C 16,3 C 16,6 C 91 % 1016,9 hPa 0,0 l/m 1,0 km/h (0 Bft) W-SW 248 0 min 0 min 0,000 mm 0,0 UV-I 42 W/m 14,8 C 16,3 C 3,2 km/h (1 Bft)
08.07.2020 19:30 16,6 C 16,6 C 17,2 C 89 % 1017,0 hPa 0,0 l/m 2,0 km/h (1 Bft) W-SW 248 0 min 0 min 0,000 mm 0,0 UV-I 33 W/m 14,8 C 16,6 C 6,4 km/h (2 Bft)
08.07.2020 19:15 16,9 C 16,9 C 17,2 C 87 % 1017,0 hPa 0,0 l/m 3,9 km/h (1 Bft) S 181 0 min 0 min 0,076 mm 0,0 UV-I 51 W/m 14,7 C 16,9 C 9,7 km/h (2 Bft)
08.07.2020 19:00 17,1 C 17,1 C 17,2 C 87 % 1017,1 hPa 0,0 l/m 3,1 km/h (1 Bft) S-SW 205 0 min 0 min 0,000 mm 0,0 UV-I 76 W/m 14,9 C 17,1 C 12,9 km/h (3 Bft)
08.07.2020 18:45 17,2 C 17,2 C 17,3 C 85 % 1017,1 hPa 0,0 l/m 4,5 km/h (1 Bft) SW 215 0 min 0 min 0,000 mm 0,0 UV-I 76 W/m 14,7 C 17,2 C 16,1 km/h (3 Bft)
08.07.2020 18:30 17,3 C 17,2 C 17,3 C 86 % 1017,1 hPa 0,0 l/m 3,9 km/h (1 Bft) SW 227 0 min 0 min 0,000 mm 0,6 UV-I 114 W/m 14,9 C 17,3 C 12,9 km/h (3 Bft)
08.07.2020 18:15 17,2 C 17,1 C 17,2 C 86 % 1017,1 hPa 0,0 l/m 4,6 km/h (1 Bft) W 274 0 min 0 min 0,076 mm 0,8 UV-I 149 W/m 14,8 C 17,2 C 12,9 km/h (3 Bft)
08.07.2020 18:00 17,1 C 16,9 C 17,1 C 86 % 1017,3 hPa 0,0 l/m 6,7 km/h (2 Bft) W-SW 242 0 min 0 min 0,000 mm 0,9 UV-I 160 W/m 14,7 C 17,1 C 20,9 km/h (4 Bft)
08.07.2020 17:45 17,1 C 17,1 C 17,2 C 87 % 1017,4 hPa 0,0 l/m 3,2 km/h (1 Bft) W-SW 250 0 min 0 min 0,000 mm 1,0 UV-I 162 W/m 14,9 C 17,1 C 9,7 km/h (2 Bft)
08.07.2020 17:30 17,2 C 17,1 C 17,2 C 85 % 1017,4 hPa 0,0 l/m 4,1 km/h (1 Bft) W-SW 250 0 min 0 min 0,001 mm 0,7 UV-I 100 W/m 14,7 C 17,2 C 11,3 km/h (2 Bft)
08.07.2020 17:15 17,2 C 16,9 C 17,2 C 86 % 1017,5 hPa 0,0 l/m 2,3 km/h (1 Bft) W-NW 302 0 min 0 min 0,076 mm 0,9 UV-I 114 W/m 14,8 C 17,2 C 11,3 km/h (2 Bft)
08.07.2020 17:00 16,9 C 16,8 C 16,9 C 86 % 1017,6 hPa 0,0 l/m 2,6 km/h (1 Bft) W 279 0 min 0 min 0,000 mm 0,9 UV-I 107 W/m 14,5 C 16,9 C 6,4 km/h (2 Bft)
08.07.2020 16:45 16,9 C 16,6 C 16,9 C 87 % 1017,6 hPa 0,0 l/m 1,8 km/h (1 Bft) W 261 0 min 0 min 0,000 mm 0,9 UV-I 100 W/m 14,7 C 16,9 C 6,4 km/h (2 Bft)
08.07.2020 16:30 16,6 C 16,6 C 16,7 C 86 % 1017,5 hPa 0,0 l/m 3,7 km/h (1 Bft) W-SW 240 0 min 0 min 0,000 mm 1,0 UV-I 135 W/m 14,2 C 16,6 C 14,5 km/h (3 Bft)
08.07.2020 16:15 16,6 C 16,4 C 16,6 C 87 % 1017,3 hPa 0,0 l/m 1,9 km/h (1 Bft) S-SW 211 0 min 0 min 0,000 mm 1,2 UV-I 144 W/m 14,4 C 16,6 C 6,4 km/h (2 Bft)
08.07.2020 16:00 16,4 C 16,1 C 16,4 C 87 % 1017,4 hPa 0,0 l/m 0,8 km/h (0 Bft) SW 217 0 min 0 min 0,076 mm 0,8 UV-I 97 W/m 14,2 C 16,4 C 3,2 km/h (1 Bft)
08.07.2020 15:45 16,1 C 15,8 C 16,1 C 89 % 1017,5 hPa 0,0 l/m 1,0 km/h (0 Bft) SW 217 0 min 0 min 0,000 mm 1,3 UV-I 135 W/m 14,3 C 16,1 C 3,2 km/h (1 Bft)
08.07.2020 15:30 15,8 C 15,7 C 15,9 C 88 % 1017,4 hPa 0,0 l/m 2,1 km/h (1 Bft) SW 217 0 min 0 min 0,000 mm 1,1 UV-I 118 W/m 13,8 C 15,8 C 6,4 km/h (2 Bft)
08.07.2020 15:15 15,7 C 15,6 C 15,8 C 89 % 1017,3 hPa 0,0 l/m 1,4 km/h (1 Bft) SW 217 0 min 0 min 0,000 mm 1,4 UV-I 158 W/m 13,9 C 15,7 C 6,4 km/h (2 Bft)
08.07.2020 15:00 15,8 C 15,3 C 15,8 C 90 % 1017,4 hPa 0,0 l/m 1,2 km/h (1 Bft) W 261 0 min 0 min 0,101 mm 1,5 UV-I 149 W/m 14,2 C 15,8 C 4,8 km/h (1 Bft)
08.07.2020 14:45 15,3 C 15,3 C 15,6 C 90 % 1017,5 hPa 0,2 l/m 1,7 km/h (1 Bft) W 261 0 min 15 min 0,000 mm 1,7 UV-I 183 W/m 13,7 C 15,3 C 4,8 km/h (1 Bft)
08.07.2020 14:30 15,6 C 15,5 C 15,7 C 90 % 1017,4 hPa 0,0 l/m 1,9 km/h (1 Bft) W 261 0 min 0 min 0,000 mm 1,5 UV-I 163 W/m 14,0 C 15,6 C 4,8 km/h (1 Bft)
08.07.2020 14:15 15,5 C 15,3 C 15,6 C 89 % 1017,4 hPa 0,2 l/m 1,0 km/h (0 Bft) W 260 0 min 15 min 0,000 mm 1,4 UV-I 146 W/m 13,7 C 15,5 C 3,2 km/h (1 Bft)
08.07.2020 14:00 15,4 C 15,3 C 15,6 C 89 % 1017,3 hPa 0,0 l/m 1,7 km/h (1 Bft) W 259 0 min 0 min 0,127 mm 1,5 UV-I 148 W/m 13,6 C 15,4 C 6,4 km/h (2 Bft)
08.07.2020 13:45 15,3 C 15,2 C 15,3 C 90 % 1017,3 hPa 0,4 l/m 2,6 km/h (1 Bft) W-SW 246 0 min 15 min 0,000 mm 1,7 UV-I 163 W/m 13,7 C 15,3 C 6,4 km/h (2 Bft)
08.07.2020 13:30 15,2 C 14,9 C 15,3 C 88 % 1017,4 hPa 0,4 l/m 3,3 km/h (1 Bft) W-SW 244 0 min 15 min 0,000 mm 2,9 UV-I 285 W/m 13,2 C 15,2 C 9,7 km/h (2 Bft)
08.07.2020 13:15 14,9 C 14,8 C 15,0 C 90 % 1017,3 hPa 0,4 l/m 3,5 km/h (1 Bft) S-SW 210 0 min 15 min 0,000 mm 2,4 UV-I 220 W/m 13,3 C 14,9 C 8,0 km/h (2 Bft)
08.07.2020 13:00 14,8 C 14,6 C 14,8 C 90 % 1017,3 hPa 0,4 l/m 2,1 km/h (1 Bft) SW 236 0 min 15 min 0,127 mm 2,4 UV-I 239 W/m 13,2 C 14,8 C 6,4 km/h (2 Bft)
08.07.2020 12:45 14,8 C 14,3 C 14,8 C 92 % 1017,3 hPa 0,2 l/m 1,5 km/h (1 Bft) SO 144 0 min 15 min 0,000 mm 2,2 UV-I 220 W/m 13,5 C 14,8 C 4,8 km/h (1 Bft)
08.07.2020 12:30 14,3 C 14,0 C 14,3 C 91 % 1017,3 hPa 0,4 l/m 1,8 km/h (1 Bft) SO 144 0 min 15 min 0,001 mm 2,2 UV-I 218 W/m 12,8 C 14,3 C 4,8 km/h (1 Bft)
08.07.2020 12:15 14,2 C 13,7 C 14,2 C 91 % 1017,2 hPa 0,2 l/m 1,9 km/h (1 Bft) S-SO 147 0 min 15 min 0,076 mm 1,9 UV-I 195 W/m 12,8 C 14,2 C 6,4 km/h (2 Bft)
08.07.2020 12:00 13,7 C 13,5 C 13,7 C 92 % 1017,2 hPa 0,4 l/m 1,5 km/h (1 Bft) NO 53 0 min 15 min 0,000 mm 2,4 UV-I 250 W/m 12,4 C 13,7 C 4,8 km/h (1 Bft)
08.07.2020 11:45 13,6 C 13,2 C 13,7 C 91 % 1017,3 hPa 0,4 l/m 0,6 km/h (0 Bft) NO 52 0 min 15 min 0,000 mm 1,4 UV-I 158 W/m 12,2 C 13,6 C 3,2 km/h (1 Bft)
08.07.2020 11:30 13,3 C 13,3 C 13,6 C 91 % 1017,4 hPa 0,4 l/m 1,5 km/h (1 Bft) NO 52 0 min 15 min 0,000 mm 1,3 UV-I 134 W/m 11,9 C 13,3 C 4,8 km/h (1 Bft)
08.07.2020 11:15 13,3 C 13,2 C 13,3 C 91 % 1017,4 hPa 0,4 l/m 2,9 km/h (1 Bft) N 11 0 min 15 min 0,000 mm 1,4 UV-I 146 W/m 11,9 C 13,3 C 6,4 km/h (2 Bft)
08.07.2020 11:00 13,3 C 13,2 C 13,3 C 91 % 1017,4 hPa 0,2 l/m 2,7 km/h (1 Bft) N 9 0 min 15 min 0,050 mm 0,7 UV-I 84 W/m 11,9 C 13,3 C 4,8 km/h (1 Bft)
08.07.2020 10:45 13,2 C 13,2 C 13,4 C 90 % 1017,3 hPa 0,4 l/m 2,3 km/h (1 Bft) N 9 0 min 15 min 0,000 mm 0,8 UV-I 91 W/m 11,6 C 13,2 C 4,8 km/h (1 Bft)
08.07.2020 10:30 13,3 C 13,3 C 13,4 C 90 % 1017,0 hPa 0,2 l/m 2,6 km/h (1 Bft) NO 40 0 min 15 min 0,000 mm 0,8 UV-I 97 W/m 11,7 C 13,3 C 6,4 km/h (2 Bft)
08.07.2020 10:15 13,4 C 13,2 C 13,5 C 89 % 1017,0 hPa 0,0 l/m 2,0 km/h (1 Bft) N 355 0 min 0 min 0,000 mm 0,8 UV-I 104 W/m 11,6 C 13,4 C 6,4 km/h (2 Bft)
08.07.2020 10:00 13,3 C 13,2 C 13,3 C 88 % 1016,7 hPa 0,4 l/m 1,5 km/h (1 Bft) SW 231 0 min 15 min 0,077 mm 1,2 UV-I 155 W/m 11,4 C 13,3 C 4,8 km/h (1 Bft)
08.07.2020 09:45 13,2 C 12,8 C 13,2 C 89 % 1016,7 hPa 0,2 l/m 0,5 km/h (0 Bft) S-SW 204 0 min 15 min 0,000 mm 0,8 UV-I 104 W/m 11,4 C 13,2 C 3,2 km/h (1 Bft)
08.07.2020 09:30 12,8 C 12,7 C 12,9 C 89 % 1016,6 hPa 0,2 l/m 1,3 km/h (1 Bft) S-SW 204 0 min 15 min 0,000 mm 0,9 UV-I 151 W/m 11,0 C 12,8 C 4,8 km/h (1 Bft)
08.07.2020 09:15 12,8 C 12,5 C 12,9 C 89 % 1016,8 hPa 0,2 l/m 1,4 km/h (1 Bft) S-SW 204 0 min 15 min 0,000 mm 0,8 UV-I 141 W/m 11,0 C 12,8 C 4,8 km/h (1 Bft)
08.07.2020 09:00 12,5 C 12,3 C 12,5 C 89 % 1016,8 hPa 0,0 l/m 1,3 km/h (1 Bft) S-SW 204 0 min 0 min 0,025 mm 0,5 UV-I 91 W/m 10,7 C 12,5 C 3,2 km/h (1 Bft)
08.07.2020 08:45 12,4 C 11,9 C 12,4 C 90 % 1016,6 hPa 0,0 l/m 1,6 km/h (1 Bft) S-SW 204 0 min 0 min 0,000 mm 0,0 UV-I 77 W/m 10,8 C 12,4 C 4,8 km/h (1 Bft)
08.07.2020 08:30 11,9 C 11,8 C 11,9 C 89 % 1016,6 hPa 0,0 l/m 2,8 km/h (1 Bft) S-SW 205 0 min 0 min 0,000 mm 0,0 UV-I 67 W/m 10,1 C 11,9 C 8,0 km/h (2 Bft)
08.07.2020 08:15 11,8 C 11,8 C 12,0 C 88 % 1016,7 hPa 0,2 l/m 3,2 km/h (1 Bft) S 182 0 min 15 min 0,025 mm 0,0 UV-I 58 W/m 9,9 C 11,8 C 12,9 km/h (3 Bft)
08.07.2020 08:00 12,0 C 11,9 C 12,1 C 88 % 1016,8 hPa 0,0 l/m 3,4 km/h (1 Bft) SW 229 0 min 0 min 0,000 mm 0,0 UV-I 58 W/m 10,1 C 12,0 C 9,7 km/h (2 Bft)
08.07.2020 07:45 12,1 C 12,0 C 12,1 C 87 % 1016,9 hPa 0,2 l/m 2,3 km/h (1 Bft) W 277 0 min 15 min 0,000 mm 0,0 UV-I 54 W/m 10,0 C 12,1 C 8,0 km/h (2 Bft)
08.07.2020 07:30 12,1 C 12,0 C 12,1 C 87 % 1016,9 hPa 0,2 l/m 3,4 km/h (1 Bft) W 271 0 min 15 min 0,000 mm 0,0 UV-I 32 W/m 10,0 C 12,1 C 12,9 km/h (3 Bft)
08.07.2020 07:15 12,1 C 12,1 C 12,2 C 84 % 1016,9 hPa 0,0 l/m 5,8 km/h (2 Bft) W-SW 249 0 min 0 min 0,000 mm 0,0 UV-I 30 W/m 9,5 C 12,1 C 14,5 km/h (3 Bft)
08.07.2020 07:00 12,2 C 12,2 C 12,3 C 84 % 1016,7 hPa 0,0 l/m 4,6 km/h (1 Bft) W 273 0 min 0 min 0,026 mm 0,0 UV-I 16 W/m 9,6 C 12,2 C 12,9 km/h (3 Bft)
_ Min-Zeit 08:15 08:15 08:30 07:00 04:45 - 03:30 - - - - - - - 07:15 08:15 03:45
Minimum _ 11,8 C 11,8 C 11,9 C 84 % 1015,6 hPa - 0,0 km/h (0 Bft) - - - - - - - 9,5 C 11,8 C 0,0 km/h (0 Bft)
_ Max-Zeit 18:30 18:30 18:30 00:45 16:45 10:00 18:00 - - 07:00 07:30 13:00 13:30 13:30 05:00 18:30 18:00
Maximum _ 17,3 C 17,2 C 17,3 C 95 % 1017,6 hPa 0,4 l/m 6,7 km/h
W-SW (2 Bft)
- - 0 min 15 min 0,127 mm 2,9 UV-I 285 W/m 15,5 C 17,3 C 20,9 km/h
W-SW (4 Bft)
Durchschnitt _ 15,2 C 15,0 C 15,2 C 91 % 1016,9 hPa #9,2 l/m 2,1 km/h (1 Bft) W-SW - #0 min. #30 min. #0,000 mm 0,0 UV-I 5 W/m 13,6 C 15,2 C 6,6 km/h (2 Bft)